Location: Bodest
(46.3000°N, 22.5667°E)
Time: 23:15:19
(UTC+00:00)

Cosmos 1470 - Pass Details

Date: 16 October 2021
Orbit: 519 x 541 km, 82.5° (Epoch: 05 December)

Event Time Altitude Azimuth Distance (km) Brightness Sun altitude
Rises 16:18:51 0° 194° (SSW) 2,689 6.6 -7.2°
Reaches altitude 10° 16:21:01 10° 197° (SSW) 1,803 5.8 -7.6°
Maximum altitude 16:24:58 67° 280° (W) 591 3.2 -8.3°
Drops below altitude 10° 16:28:56 10° 4° (N) 1,816 5.4 -9.0°
Sets 16:31:07 0° 7° (N) 2,712 6.2 -9.3°
